Dewpoint
-20 -19 -20 -19 -19 -19 -23 -22 -20 -20 -20 -22 -23 -21 -19 -19 -20 -17 -18 -19 -6 -6 -5 1 -2 -2 14 15 15 15 17 18 17 16 16 16 16 16 16 15 14 15 14 15 15
-18 -20 -18 -17 -16 -16 -17 -21 -21 -19 -19 -20 -23 -22 -20 -19 -17 -14 -15 -22 -6 -3 -3 -2 -4 6 10 14 15 15 16 17 14 13 16 16 17 16 17 15 15 15 14 16 15
-8 -15 -18 -16 -14 -13 -14 -19 -19 -20 -18 -19 -23 -21 -20 -18 -11 0 -7 -22 -6 -3 -2 -2 -4 8 8 10 14 15 16 14 14 15 15 16 17 16 17 16 15 14 15 16 16
-10 -12 -15 -13 -11 -11 -11 -16 -18 -19 -17 -18 -21 -20 -18 -12 1 -0 -9 -21 -5 -4 -3 1 2 7 7 9 10 12 11 14 13 15 16 16 15 16 16 17 16 14 15 15 15
-13 -12 -11 -11 -9 -9 -11 -13 -19 -18 -15 -18 -17 -12 -8 -9 -15 -3 -4 -7 -6 -6 -5 -1 3 5 7 7 9 10 9 9 9 10 16 15 14 14 15 16 16 14 15 15 15
-7 -6 -7 -7 -8 -9 -10 -12 -19 -17 -14 -16 -15 -5 -7 -5 -3 -4 -4 -2 -4 -4 -4 -3 4 6 7 7 7 8 8 8 7 15 16 15 15 14 16 16 16 15 15 15 14
-5 -5 -6 -7 -8 -9 -10 -12 -18 -15 -12 -12 -8 -2 2 -6 -3 -3 -4 2 -8 -4 -4 -6 5 7 8 9 7 7 8 2 15 16 16 14 15 16 16 16 16 15 14 15 14
-8 -9 -9 -10 -11 -11 -12 -15 -18 -12 -9 -10 -5 -1 -0 2 1 -1 -3 -1 2 -5 -4 -8 1 4 5 6 3 1 1 2 15 15 15 14 18 16 16 16 16 15 14 14 14
-13 -13 -13 -14 -15 -15 -15 -18 -12 -7 -7 -9 -5 4 4 2 -3 -8 -5 -3 1 2 -3 -7 -7 1 -2 2 3 2 5 3 1 14 15 15 17 16 17 13 16 15 14 14 14
-15 -13 -16 -16 -16 -17 -16 -5 -3 -4 -6 -8 -2 4 -5 -6 -8 -6 -5 -5 -3 3 2 -1 -4 -2 2 4 7 4 3 1 0 13 15 16 17 16 16 16 15 15 14 14 14
-7 -9 -15 -16 -16 -19 -5 -3 -3 -1 -3 -8 -2 -4 -2 -6 -9 -10 -10 -6 2 3 3 -1 0 3 2 3 3 2 1 1 -0 -2 -2 16 16 16 16 16 15 15 14 14 14
-5 -9 -14 -19 -19 -7 -4 -4 -3 -4 -5 -6 -6 -6 -6 -5 -7 -8 -9 -0 3 3 0 3 3 1 1 3 3 3 3 2 -0 5 8 17 17 16 16 16 16 15 14 14 14
-3 -9 -19 -9 -5 -3 -4 -4 -4 -5 -5 -6 -8 -10 -9 -10 -13 -9 -8 -3 1 2 2 4 4 2 2 2 3 2 3 2 2 4 14 15 18 17 15 16 16 16 15 14 13
-2 -12 -15 -4 -3 -4 -4 -5 -4 -6 -5 -6 -8 -11 -10 -14 -14 -9 -6 -4 -1 3 3 3 2 2 2 3 2 4 1 0 -1 -4 -2 12 18 17 15 15 15 16 16 15 14
-3 -15 -19 -5 -3 -4 -4 -5 -5 -6 -2 -7 -14 -15 -15 -16 -12 -11 -9 -8 -4 -4 -1 2 -2 1 -0 -1 1 2 0 -1 -3 -4 -4 -1 3 11 14 16 16 16 16 15 15
-6 -20 -12 -4 -3 -4 -4 -3 -5 -4 -4 -11 -14 -15 -15 -15 -15 -12 -10 -10 -10 -10 -10 -10 -10 -3 -1 -1 -2 -2 -1 -4 -4 -4 -2 -4 -3 2 15 15 14 16 16 16 15
-16 -10 -8 -4 -4 -3 -3 -3 -2 1 -4 -3 -11 -15 -15 -14 -14 -11 -9 -9 -7 -10 -9 -9 -8 -9 -10 -10 -6 -5 -4 -1 -1 -1 -1 -4 -3 -3 10 12 12 14 15 16 15
-4 -3 -3 -2 -2 -2 -2 -3 2 -1 -2 -4 -5 -12 -9 -13 -13 -10 -9 -8 -5 -9 -5 -6 -5 -6 -7 -8 -7 -3 -4 -1 0 1 -0 -3 -2 -4 -5 -1 6 11 13 14 15
-3 -2 -2 -2 -3 -2 -3 -0 -1 -2 -4 -3 -4 -2 -3 -4 -10 -7 -4 -3 -5 -5 -4 -4 -4 -6 -7 -7 -7 -4 -1 -4 -1 -2 -1 -1 -3 -3 4 7 9 11 12 15 15
-1 -1 -2 -3 -2 -3 -3 -1 -3 -3 -4 -4 -2 -3 -2 -3 -3 -6 -4 -4 -5 -5 -6 -5 -5 -6 -5 -7 -7 -6 -7 -3 -2 2 2 0 -0 5 6 8 10 12 12 13 15
-2 -2 -2 -3 -2 -4 -1 -3 -3 -3 -4 -3 -3 -3 -3 -3 -3 -3 -3 -4 -4 -4 -5 -5 -5 -6 -6 -4 -4 -4 -4 -4 -3 -1 2 2 3 1 6 8 12 13 13 12 13
-1 -2 -2 -3 -2 -3 -2 -3 -3 -2 -2 -3 -3 -3 -3 -3 -3 -2 -1 -1 -2 -3 -3 -4 -4 -2 -3 -5 -7 -6 -5 -4 -2 -1 -2 2 4 -5 -4 4 10 13 13 12 12
-0 -2 -3 -3 -1 -1 -2 -2 -1 -1 -1 -2 -1 -2 -3 -1 -1 -1 -1 -2 -0 -1 -3 -4 -2 -1 -4 -5 -5 -5 -5 -5 -4 -4 -1 -0 -1 -6 1 -0 8 12 14 13 12
-3 -2 -2 -2 -1 -1 -1 0 -0 -1 -1 -1 -1 -2 -1 0 -1 0 -0 -2 -2 1 1 -3 -4 -2 -1 -2 -4 -1 -1 -5 -4 -2 -1 -1 -2 1 6 8 11 12 13 14 14
-2 -1 -1 0 -0 -1 -1 -0 1 2 -1 -1 0 1 -0 2 1 1 0 -1 -3 -2 -1 -6 -1 -1 -2 -1 -1 -0 -1 -2 -3 -4 -2 -2 -2 8 7 9 9 11 13 14 13
2 2 -1 -1 -1 -1 -0 0 1 1 -1 0 1 1 1 2 1 2 0 -0 -1 -2 -2 -2 1 0 1 -0 -1 -1 -3 -3 -3 -3 -3 -1 3 6 6 8 8 9 10 11 13
3 1 -1 -1 -1 -0 -0 -0 0 -0 -1 -1 -1 0 1 0 -0 -0 -1 -1 -1 -1 -1 -2 -1 1 1 1 -1 -3 -4 -4 -3 3 1 5 6 5 5 7 7 7 7 9 11
Wind_Speed
19 19 19 18 18 16 16 15 13 13 13 13 12 12 12 11 10 12 14 9 18 16 20 20 16 13 18 12 8 3 1 3 4 4 4 6 7 5 7 12 5 3 20 39 39
19 19 19 18 18 18 17 16 14 13 14 14 13 11 12 11 13 15 7 14 21 15 26 22 21 19 10 7 5 3 2 4 1 6 7 11 6 6 5 17 5 20 36 40 39
21 20 18 18 18 17 17 17 15 14 14 13 12 10 9 10 10 2 2 18 22 20 19 16 19 17 5 5 8 5 3 2 3 9 9 10 10 3 7 9 7 36 42 38 38
20 20 19 19 17 17 17 16 17 14 14 13 10 8 6 6 1 2 6 16 25 21 19 18 20 11 6 6 13 4 8 14 6 6 9 12 12 10 6 4 7 31 45 45 40
20 20 20 18 18 18 16 15 15 15 14 11 7 7 7 5 5 2 4 12 23 23 22 21 19 9 5 5 8 7 9 14 17 17 9 16 7 6 7 3 13 28 32 32 36
22 21 20 19 18 18 17 15 14 13 13 9 7 6 3 3 6 5 3 10 20 25 24 24 17 20 5 4 3 6 7 16 20 18 16 10 6 4 6 5 13 28 32 29 31
23 23 21 20 20 17 17 15 12 11 10 7 3 3 6 4 5 6 3 4 7 21 25 26 11 12 1 4 5 16 9 8 10 14 7 21 3 4 8 8 18 27 31 32 29
24 23 22 20 20 19 16 14 11 8 7 5 3 4 6 4 7 10 7 5 4 10 15 20 21 5 3 6 6 3 3 4 3 8 16 2 3 5 12 16 22 29 30 31 32
23 23 23 20 19 17 14 10 9 7 5 4 4 4 5 6 9 7 10 6 5 7 11 7 14 6 2 1 4 6 1 1 2 4 7 4 5 15 25 31 27 34 34 32 34
22 22 22 20 16 14 7 9 2 4 4 4 5 4 4 3 7 10 9 9 8 9 6 7 7 3 3 4 4 2 1 1 2 4 3 9 4 13 18 20 26 30 32 35 35
23 23 20 17 11 5 6 4 2 2 5 6 1 6 5 5 8 9 9 14 10 11 4 6 4 5 7 7 6 2 3 3 3 5 4 10 8 16 15 11 17 23 29 33 38
24 23 19 12 4 5 7 5 9 4 7 11 11 15 13 9 4 9 12 7 8 4 4 5 4 8 4 3 5 3 5 3 6 2 4 5 1 9 14 12 13 21 29 33 35
23 21 15 6 6 6 11 14 10 4 1 7 9 9 6 3 3 6 11 8 5 4 5 5 5 4 4 3 3 3 6 3 5 3 6 9 5 6 9 11 14 21 24 29 33
20 17 8 4 5 8 10 8 7 2 4 5 5 4 5 5 0 9 11 4 2 8 6 4 4 5 5 5 6 5 7 5 4 2 2 3 2 6 7 8 16 22 30 29 32
16 11 3 3 4 7 7 5 3 2 4 1 2 6 9 3 3 5 8 4 5 3 6 6 2 5 5 9 7 9 6 6 4 2 2 1 4 4 11 15 17 23 29 29 30
11 7 2 1 2 8 8 4 1 5 3 3 2 3 5 2 2 4 3 4 3 4 2 5 3 5 8 7 9 7 3 5 5 4 2 5 5 4 5 15 13 20 29 33 41
6 7 4 3 4 8 12 1 5 4 7 7 3 2 3 2 1 3 3 6 2 3 0 4 2 5 6 0 3 5 6 2 2 2 5 2 4 7 10 12 13 23 35 41 45
6 6 5 7 7 10 10 5 9 4 4 5 4 4 5 1 1 4 4 4 7 5 3 3 2 7 8 2 1 2 7 5 5 4 4 1 5 1 3 13 24 24 30 30 36
5 7 10 8 10 13 2 6 2 4 5 7 3 7 7 6 4 5 5 6 6 5 5 2 1 4 2 6 1 3 5 1 7 4 3 1 5 4 12 17 20 14 23 33 39
7 8 21 6 8 11 7 5 3 8 5 5 5 5 7 8 5 5 6 5 5 10 1 1 2 2 5 7 10 7 3 4 4 4 3 4 5 6 14 15 13 14 13 27 32
7 4 26 6 8 9 4 2 4 15 10 7 5 5 3 4 4 4 4 3 6 7 10 2 3 5 3 7 6 8 6 5 4 4 5 3 2 9 8 7 12 13 19 22 34
16 4 21 10 7 4 3 5 7 13 17 8 5 5 4 7 7 5 5 8 20 5 4 4 5 4 4 6 6 15 5 4 4 6 2 1 4 6 13 12 15 21 29 14 29
7 17 25 4 4 3 4 5 12 11 7 6 7 7 6 6 6 6 6 13 22 8 3 4 4 3 4 6 8 7 6 5 5 3 2 1 3 11 21 20 21 25 32 25 17
4 4 11 25 9 5 3 6 4 14 11 8 7 6 6 8 9 4 4 8 14 15 15 7 4 4 5 3 3 3 5 6 5 4 3 4 5 13 18 20 25 27 30 27 11
7 3 3 3 8 7 6 3 4 5 7 16 6 9 2 5 3 4 6 6 8 17 8 5 4 3 3 3 3 3 3 5 4 3 4 6 6 6 12 15 22 22 28 28 26
5 4 8 5 4 8 6 3 4 4 4 4 5 5 7 4 3 0 2 2 1 8 5 5 2 2 4 4 5 1 3 5 6 4 1 3 3 5 14 20 28 28 24 26 27
11 7 2 6 3 4 2 2 2 3 8 5 4 3 2 2 2 4 5 4 1 1 3 3 3 3 3 5 6 5 4 4 2 1 4 5 1 5 5 13 19 25 28 27 23
Wind_Direction
339 338 338 337 336 336 336 333 328 325 322 316 309 305 302 302 287 279 260 220 197 181 177 174 175 170 179 199 204 235 232 230 216 196 98 92 29 142 356 157 143 161 152 152 154
334 333 334 334 334 332 332 330 324 321 324 316 307 307 300 301 298 289 242 190 186 179 173 175 173 165 175 211 212 232 227 210 31 123 105 94 61 18 299 184 93 110 144 150 157
333 331 328 329 330 329 329 328 321 317 324 318 306 307 304 308 315 15 264 182 175 163 168 173 169 163 176 194 212 209 231 218 122 106 122 147 148 134 160 199 141 145 149 157 162
331 328 326 324 323 323 324 325 320 314 323 318 308 304 304 308 159 63 68 170 174 162 168 167 167 169 184 204 214 277 255 249 257 173 140 141 152 152 167 91 142 158 159 164 169
333 329 325 322 320 318 318 319 317 312 320 312 307 309 303 269 249 157 106 159 175 179 177 176 171 165 181 206 219 246 271 267 265 244 179 140 187 131 131 140 154 164 163 164 171
333 330 326 321 316 314 314 313 311 307 316 307 300 309 257 254 137 140 78 185 189 185 181 184 188 180 227 243 191 236 264 275 279 141 144 125 142 104 157 164 167 175 170 168 176
330 327 325 320 316 310 309 309 301 299 309 305 291 264 257 193 170 180 79 89 195 195 186 188 177 191 237 300 330 254 270 284 115 137 127 118 67 193 157 180 184 176 175 175 174
327 323 322 321 316 312 308 305 293 288 294 281 267 261 253 170 212 197 208 177 157 188 200 197 192 240 260 306 326 282 47 35 177 154 171 103 216 200 176 144 184 177 180 177 182
328 327 322 321 316 310 313 302 290 273 263 241 258 279 253 207 221 248 207 196 181 167 166 158 184 220 263 149 12 2 212 161 337 212 145 212 151 218 182 164 190 182 180 181 185
334 334 328 324 319 313 336 322 301 228 198 223 246 303 242 184 185 167 174 206 203 178 159 171 179 127 48 81 189 184 338 351 66 173 197 189 227 189 196 190 184 186 183 182 191
339 336 334 329 322 337 33 130 64 68 246 226 225 269 300 10 188 189 180 192 160 154 145 187 119 192 206 187 190 186 218 274 237 246 243 215 197 183 184 201 194 189 193 189 193
339 338 339 342 354 76 49 49 23 345 299 274 254 260 277 287 300 166 169 151 144 174 143 52 196 214 225 164 192 216 269 307 288 291 102 43 131 148 180 196 214 200 198 196 194
340 340 350 53 82 58 50 24 12 327 182 288 218 230 245 224 234 194 197 148 147 147 155 143 211 175 170 258 239 217 237 201 212 348 46 109 98 187 209 222 235 229 218 209 202
340 344 9 70 77 36 28 5 2 338 67 288 199 205 202 188 245 190 182 147 103 179 151 200 257 190 211 225 153 251 215 224 238 132 256 173 152 214 223 222 232 225 223 216 209
338 346 343 38 47 23 338 279 308 311 76 126 141 141 160 149 135 84 160 151 146 126 99 240 232 183 199 224 165 234 173 195 192 199 86 266 90 237 190 231 220 219 215 214 214
343 354 9 106 13 334 331 325 224 39 84 58 124 123 87 62 27 109 76 92 93 107 12 225 242 154 204 228 188 237 136 65 55 104 70 250 123 278 193 224 220 215 217 212 217
32 41 73 40 333 334 335 251 47 60 325 349 341 82 103 131 236 130 97 37 52 100 135 347 11 330 37 218 349 95 76 337 33 53 193 214 71 234 235 254 228 207 206 212 214
91 54 37 28 349 335 343 56 62 343 314 321 332 54 56 340 30 39 60 44 16 52 76 127 360 12 325 34 209 284 154 153 187 166 182 115 185 226 287 311 266 226 222 220 205
9 359 20 11 358 348 46 56 25 314 292 325 1 54 2 357 103 82 66 28 22 2 119 117 159 336 91 64 43 297 43 249 101 11 79 238 310 29 353 14 353 247 206 210 217
356 34 8 357 358 3 64 94 53 354 350 40 77 27 37 340 51 58 26 341 352 23 101 94 99 7 310 26 30 75 313 51 12 117 149 335 86 336 343 345 0 348 238 227 217
22 42 5 4 3 50 83 79 58 359 40 48 25 45 31 10 45 56 6 319 12 336 56 65 59 308 41 23 2 19 15 9 109 82 141 139 10 350 318 330 349 348 341 256 224
39 43 1 7 48 26 29 334 38 358 21 35 70 69 47 26 32 71 71 3 340 355 40 345 124 70 22 321 111 81 71 82 89 331 15 129 206 349 336 327 357 356 351 341 226
64 44 26 61 87 20 1 46 53 20 8 26 20 27 26 34 81 50 38 356 31 39 30 330 25 55 4 347 11 50 8 58 101 76 3 57 248 341 341 346 3 8 356 342 230
64 29 26 51 76 107 65 17 42 29 45 46 20 49 33 33 21 65 14 14 18 24 42 76 60 112 162 181 228 30 46 50 93 76 291 254 301 343 345 348 353 8 14 35 63
58 40 28 356 15 70 70 40 27 19 36 24 33 35 38 52 43 58 1 349 12 10 29 82 93 102 141 185 141 206 89 76 100 179 153 276 343 329 341 346 347 4 25 26 30
67 78 87 74 51 52 20 0 50 3 58 357 84 32 46 87 133 279 67 58 7 344 33 2 146 95 346 333 0 310 243 172 181 147 223 254 260 327 350 360 9 4 15 26 18
73 79 101 16 37 67 305 138 7 111 48 112 126 112 59 184 253 271 267 265 198 54 16 52 106 63 298 327 352 13 351 83 127 79 170 199 229 353 340 7 9 7 17 17 24
Height
1515 1512 1509 1507 1504 1501 1498 1496 1494 1492 1490 1488 1487 1486 1485 1484 1484 1482 1481 1484 1487 1490 1494 1497 1500 1503 1506 1507 1508 1509 1512 1511 1506 1504 1504 1507 1506 1507 1509 1510 1508 1509 1512 1518 1525
1512 1510 1507 1504 1502 1500 1497 1494 1492 1490 1488 1486 1485 1484 1483 1482 1481 1478 1479 1480 1483 1488 1491 1494 1497 1501 1505 1506 1508 1508 1510 1503 1498 1500 1505 1507 1507 1506 1505 1510 1512 1510 1516 1524 1526
1510 1507 1504 1502 1499 1497 1495 1493 1490 1488 1487 1484 1483 1482 1481 1480 1479 1476 1474 1477 1482 1487 1492 1496 1499 1502 1504 1505 1505 1503 1503 1497 1497 1498 1500 1500 1508 1512 1509 1510 1512 1510 1515 1524 1528
1508 1505 1502 1499 1496 1494 1492 1490 1488 1486 1485 1482 1481 1480 1480 1480 1481 1476 1474 1477 1482 1486 1491 1494 1499 1501 1503 1503 1501 1504 1497 1498 1498 1499 1499 1503 1506 1510 1509 1511 1514 1518 1516 1518 1527
1505 1502 1499 1496 1494 1491 1489 1487 1485 1484 1483 1481 1480 1479 1479 1479 1476 1476 1477 1478 1481 1485 1488 1492 1496 1498 1501 1500 1501 1501 1497 1494 1494 1494 1497 1500 1503 1504 1508 1512 1515 1523 1527 1528 1529
1502 1499 1496 1493 1490 1488 1486 1484 1482 1481 1481 1479 1479 1478 1478 1479 1475 1476 1477 1478 1480 1483 1487 1491 1493 1496 1498 1498 1500 1494 1495 1491 1488 1490 1497 1501 1505 1503 1508 1509 1515 1522 1528 1532 1532
1499 1496 1493 1489 1487 1484 1482 1481 1479 1478 1478 1478 1477 1477 1477 1474 1474 1476 1477 1478 1479 1482 1485 1490 1493 1497 1498 1496 1496 1492 1496 1489 1489 1491 1497 1500 1509 1505 1506 1508 1513 1520 1526 1531 1534
1496 1492 1488 1485 1483 1480 1479 1477 1476 1475 1476 1477 1476 1476 1472 1472 1473 1475 1476 1478 1480 1483 1488 1491 1494 1496 1497 1496 1494 1494 1495 1502 1491 1492 1497 1497 1515 1506 1505 1508 1513 1517 1523 1529 1533
1492 1489 1485 1481 1479 1476 1475 1473 1473 1473 1473 1475 1476 1476 1471 1471 1471 1472 1474 1477 1480 1484 1488 1491 1495 1497 1496 1499 1506 1502 1509 1502 1495 1493 1497 1502 1510 1503 1503 1497 1507 1513 1516 1525 1532
1489 1485 1482 1479 1475 1473 1472 1472 1470 1472 1472 1473 1475 1477 1469 1469 1469 1470 1473 1476 1478 1483 1488 1491 1493 1497 1500 1505 1523 1509 1505 1503 1504 1497 1493 1501 1502 1501 1506 1508 1508 1512 1514 1519 1526
1487 1483 1478 1475 1473 1471 1471 1471 1474 1474 1472 1468 1470 1470 1467 1468 1469 1470 1472 1475 1478 1483 1488 1488 1496 1504 1498 1497 1496 1497 1501 1505 1499 1491 1493 1495 1496 1499 1505 1511 1511 1512 1515 1517 1519
1485 1480 1476 1473 1472 1472 1471 1471 1473 1474 1469 1465 1466 1467 1466 1468 1469 1469 1472 1474 1477 1484 1484 1492 1499 1491 1489 1491 1495 1497 1500 1507 1497 1490 1493 1500 1500 1501 1504 1508 1510 1512 1513 1515 1520
1482 1478 1475 1473 1473 1473 1472 1471 1471 1469 1469 1463 1462 1463 1464 1467 1467 1467 1470 1472 1475 1481 1484 1492 1487 1485 1489 1492 1496 1498 1501 1505 1506 1494 1497 1499 1509 1510 1506 1509 1509 1510 1513 1517 1519
1480 1477 1475 1474 1476 1473 1472 1471 1470 1469 1479 1467 1462 1461 1464 1465 1466 1467 1469 1471 1474 1480 1482 1486 1479 1483 1488 1492 1494 1506 1490 1494 1496 1503 1515 1497 1525 1512 1506 1505 1504 1505 1508 1511 1516
1478 1476 1475 1474 1475 1474 1474 1471 1470 1470 1492 1463 1461 1461 1462 1466 1467 1468 1469 1470 1474 1476 1482 1487 1480 1485 1489 1487 1487 1492 1485 1490 1494 1500 1504 1502 1518 1510 1505 1506 1497 1499 1502 1508 1512
1477 1475 1475 1476 1475 1475 1472 1471 1471 1483 1485 1465 1460 1461 1464 1465 1466 1467 1469 1471 1473 1475 1478 1479 1475 1477 1479 1476 1479 1477 1485 1494 1504 1512 1529 1507 1512 1516 1512 1494 1490 1493 1495 1499 1503
1477 1476 1476 1476 1476 1474 1471 1470 1484 1496 1473 1475 1469 1463 1466 1469 1468 1469 1472 1480 1487 1491 1490 1483 1481 1478 1477 1478 1477 1483 1497 1524 1524 1531 1532 1507 1513 1505 1488 1482 1479 1478 1481 1485 1494
1481 1479 1478 1477 1476 1473 1471 1473 1497 1485 1484 1473 1469 1469 1474 1470 1471 1473 1480 1490 1485 1487 1502 1499 1502 1488 1483 1483 1485 1482 1491 1521 1526 1537 1526 1515 1518 1501 1486 1480 1471 1475 1479 1486 1489
1483 1482 1480 1479 1476 1473 1472 1493 1499 1490 1482 1479 1475 1483 1484 1477 1476 1481 1492 1499 1494 1491 1500 1502 1499 1491 1485 1485 1484 1488 1502 1493 1519 1523 1522 1520 1503 1491 1488 1483 1476 1472 1476 1476 1479
1484 1482 1481 1479 1477 1476 1477 1493 1492 1487 1483 1480 1491 1489 1495 1489 1485 1488 1497 1497 1495 1492 1490 1498 1502 1496 1491 1486 1489 1493 1495 1508 1517 1531 1528 1527 1523 1526 1505 1496 1490 1482 1479 1476 1479
1485 1483 1483 1481 1480 1479 1495 1494 1492 1489 1484 1488 1493 1496 1496 1495 1494 1500 1505 1499 1496 1494 1493 1499 1505 1504 1498 1508 1510 1508 1517 1519 1519 1527 1536 1539 1537 1514 1511 1502 1494 1489 1479 1474 1474
1488 1490 1487 1483 1486 1493 1502 1496 1495 1495 1492 1493 1494 1497 1499 1501 1504 1503 1512 1510 1501 1498 1502 1504 1518 1526 1519 1515 1510 1512 1524 1526 1539 1539 1538 1534 1540 1514 1508 1501 1494 1486 1477 1473 1473
1492 1494 1491 1486 1502 1506 1502 1503 1504 1502 1501 1499 1502 1501 1502 1507 1510 1510 1511 1510 1504 1503 1508 1505 1524 1531 1529 1523 1518 1524 1527 1527 1536 1544 1549 1549 1533 1511 1506 1501 1497 1491 1482 1471 1474
1496 1501 1499 1495 1501 1505 1507 1511 1510 1509 1508 1508 1509 1506 1507 1513 1512 1519 1517 1515 1511 1509 1507 1507 1531 1532 1541 1536 1535 1535 1532 1531 1536 1549 1548 1540 1532 1523 1513 1507 1499 1496 1491 1484 1482
1501 1508 1508 1514 1511 1509 1510 1515 1515 1516 1513 1512 1513 1516 1516 1522 1522 1525 1522 1519 1514 1514 1512 1516 1535 1532 1534 1532 1531 1532 1534 1533 1536 1533 1541 1532 1532 1530 1524 1517 1510 1505 1498 1495 1494
1507 1509 1511 1512 1512 1513 1516 1520 1519 1517 1517 1520 1521 1520 1518 1523 1525 1525 1525 1525 1525 1521 1521 1522 1536 1531 1536 1530 1528 1530 1530 1530 1528 1529 1529 1528 1528 1529 1525 1520 1510 1508 1505 1501 1500
1512 1512 1512 1516 1516 1518 1520 1519 1520 1518 1521 1520 1520 1521 1522 1522 1521 1521 1521 1521 1523 1525 1527 1529 1535 1541 1541 1536 1530 1535 1527 1526 1527 1526 1526 1534 1531 1530 1526 1524 1519 1512 1508 1505 1502